OpenBCM V1.13 (Linux)

Packet Radio Mailbox

DB0FHN

[JN59NK Nuernberg]

 Login: GUEST





  
LU9DCE > KEP      04.06.19 20:34l 252 Lines 12443 Bytes #-2525 (0) @ WW
BID : 26070_LU9DCE
Read: DF7EAV DJ6UX GUEST
Subj: TLE 04 06
Path: DB0FHN<DB0BLO<DB0ERF<IZ3LSV<IK6ZDE<I0OJJ<LU9DCE
Sent: 190604/1801Z 26070@LU9DCE.TOR.BA.ARG.SOAM LinBPQ6.0.18

>From lu9dce%lu9dce.tor.ba.arg.soam@i0ojj.ampr.org Tue Jun  4 20:02:01 2019
Received: from i0ojj.ampr.org by i0ojj.ampr.org (JNOS2.0k.3b) with SMTP
	id AA12381 ; Tue, 04 Jun 2019 20:02:01 +0200
Message-Id: <26070_lu9dce@lu9dce.bbs>
>From: lu9dce@lu9dce.tor.ba.arg.soam
X-JNOS-User-Port: Circuit  (X-YORK:VE3CGR-8 LU9DCE)  -> Sending message

            __    _  _  ___  ____   ___  ____    ____  ____  ____
           (  )  / )( \/ _ \(    \ / __)(  __)  (  _ \(  _ \/ ___)
           / (_/\) \/ (\__  )) D (( (__  ) _)    ) _ ( ) _ (\___ \
           \____/\____/(___/(____/ \___)(____)  (____/(____/(____/
               ESTACION DE PACKET RADIO - BUENOS AIRES (GF05OM)
                   BOLETINES INFORMATIVOS PROGRAMADOS (BIP)
                  SLACKWARE LINUX - HELLOCODELINUX@GMAIL.COM

+----------------------------------------------------------------------------+
OSCAR 7
1  7530U 74089B   19155.43344639 -.00000042  00000-0  19362-4 0  9992
2  7530 101.7428 123.2410 0012390  16.6556 101.0598 12.53638341 38738
OSCAR 11 (UoSAT 2)
1 14781U 84021B   19155.32942092  .00000053  00000-0  12594-4 0  9991
2 14781  97.6116 180.7266 0008817  17.3728 342.7787 14.83087915896631
OSCAR 19 (LUSAT)
1 20442U 90005G   19155.42438754 -.00000024  00000-0  75131-5 0  9993
2 20442  98.6479  97.4489 0011525 186.0203 174.0844 14.32926019534335
EYESAT A
1 22825U 93061C   19154.87689645 -.00000014 +00000-0 +12391-4 0  9997
2 22825 098.9025 143.1765 0009231 047.2795 312.9162 14.30059649339561
ITAMSAT
1 22826U 93061D   19154.88201458 -.00000024  00000-0  84946-5 0  9998
2 22826  98.8965 143.1750 0009593  36.8750 323.3090 14.30393077340030
RADIO ROSTO
1 23439U 94085A   19154.88217576 -.00000057 +00000-0 -40491-3 0  9996
2 23439 064.8136 140.0733 0146309 116.1201 245.4858 11.27568128006221
JAS 2
1 24278U 96046B   19154.98240970 -.00000027  00000-0  11728-4 0  9990
2 24278  98.5349 310.3897 0349279 278.1999  77.9673 13.53091375125816
TECHSAT 1B
1 25397U 98043D   19155.07135497 -.00000028  00000-0  71404-5 0  9999
2 25397  98.6882  95.3931 0002429  83.2096 276.9359 14.23665975 85792
ISS (ZARYA)
1 25544U 98067A   19155.51091253  .00000344  00000-0  13620-4 0  9994
2 25544  51.6453  64.2093 0007540  13.2790 173.5287 15.51165870173281
PCSAT
1 26931U 01043C   19154.88859471 -.00000020  00000-0  24292-4 0  9995
2 26931  67.0525  41.8801 0006507 279.9730  80.0637 14.30543392922859
SAUDISAT 1C
1 27607U 02058C   19154.90731974 -.00000056 +00000-0 +13096-4 0  9992
2 27607 064.5550 094.7970 0081808 259.3844 099.8037 14.75549745884721
CUTE-1
1 27844U 03031E   19155.01929277  .00000037  00000-0  36194-4 0  9997
2 27844  98.6838 163.4523 0011082  75.7263 284.5144 14.22179188826204
CUBESAT XI 4
1 27848U 03031J   19155.00725195  .00000022  00000-0  29897-4 0  9999
2 27848  98.6916 163.9373 0011000  85.9003 274.3431 14.21774037826050
MOZHAYETS 4
1 27939U 03042A   19155.38139943  .00000066  00000-0  20458-4 0  9995
2 27939  98.0381 291.4780 0014272 111.2909 248.9830 14.66782546838441
CUBESAT XI 5
1 28895U 05043F   19154.87882729  .00000083  00000-0  24816-4 0  9991
2 28895  97.9570 298.1196 0017656  42.5040 317.7526 14.63664717725322
CUTE-1.7+APD II
1 32785U 08021C   19155.49952993  .00000136  00000-0  20315-4 0  9992
2 32785  97.5491 155.8836 0011900 315.3056  44.7201 14.88304595601576
DELFI C3
1 32789U 08021G   19155.07608257  .00001164  00000-0  81821-4 0  9992
2 32789  97.4654 205.1822 0012724 167.8390 192.3148 15.06921919604760
SEEDS
1 32791U 08021J   19155.54185982  .00000185  00000-0  24133-4 0  9997
2 32791  97.5279 161.8829 0011748 287.5734  72.4201 14.90812448602000
YUBELEINY
1 32953U 08025A   19155.47940934  .00000021  00000-0  75656-4 0  9994
2 32953  82.5004 153.6035 0019620 156.3127 203.8870 12.43089827500545
PRISM (HITOMI)
1 33493U 09002B   19154.82002036 -.00000182  00000-0 -10291-4 0  9994
2 33493  98.1229  75.2107 0013777 230.2725 129.7281 14.96641136562928
KKS-1 (KISEKI)
1 33499U 09002H   19154.89063739 +.00000084 +00000-0 +20403-4 0  9999
2 33499 098.3511 353.1262 0007917 251.5050 108.5298 14.75438185556613
SWISSCUBE
1 35932U 09051B   19155.44301813  .00000103  00000-0  34319-4 0  9990
2 35932  98.5866 321.0003 0007180 200.3119 159.7794 14.56280837514700
BEESAT
1 35933U 09051C   19155.44686403  .00000080  00000-0  29085-4 0  9990
2 35933  98.5893 322.7558 0005133 211.7738 148.3150 14.56370466514813
ITUPSAT 1
1 35935U 09051E   19155.42758182  .00000054  00000-0  23659-4 0  9996
2 35935  98.6003 322.9750 0007469 212.1456 147.9286 14.55531037514560
XIWANG-1 (HOPE-1)
1 36122U 09072B   19155.21885680 -.00000033  00000-0  23353-4 0  9998
2 36122 100.0721 158.2777 0008417  22.3002 337.8477 13.16349658454977
TISAT 1
1 36799U 10035E   19154.98615524  .00000229  00000-0  29202-4 0  9995
2 36799  98.1538 306.6526 0013404 130.4820 229.7568 14.91093588482571
JUGNU
1 37839U 11058B   19154.90102053 +.00000299 +00000-0 +17693-4 0  9995
2 37839 019.9617 064.4655 0019069 163.8274 255.1400 14.12651626395054
SRMSAT
1 37841U 11058D   19154.30234409 +.00000290 +00000-0 +14499-4 0  9995
2 37841 019.9711 124.5528 0011895 028.6553 081.5486 14.10632855394422
M-CUBED/EXP-1 PRIME
1 37855U 11061F   19155.24366473  .00000955  00000-0  55554-4 0  9990
2 37855 101.7164  43.4268 0173769 119.6128 242.2522 15.05377256414603
HORYU 2
1 38340U 12025D   19155.33662131  .00000138  00000-0  28196-4 0  9996
2 38340  98.3300 193.4959 0011946 163.6190 196.5407 14.75713931379046
STRAND 1
1 39090U 13009E   19154.58666235  .00000029  00000-0  25310-4 0  9991
2 39090  98.4897   0.7983 0008745 341.6089  18.4779 14.35085271328229
SOMP
1 39134U 13015E   19154.95235301  .00000783  00000-0  45226-4 0  9999
2 39134  64.8641  68.1888 0029147 306.4359  53.4081 15.20122049338352
BEESAT 3
1 39135U 13015F   19154.91429677 +.00000820 +00000-0 +50559-4 0  9994
2 39135 064.8682 086.4024 0018851 324.3054 035.6811 15.17433025337610
BEESAT 2
1 39136U 13015G   19155.20945475  .00000629  00000-0  41696-4 0  9996
2 39136  64.8692  89.2293 0018666 304.0573  55.8780 15.16865919337974
CUBEBUG 1
1 39153U 13018D   19155.23282268  .00000128  00000-0  23713-4 0  9999
2 39153  97.9773 253.4397 0015680 242.9992 116.9619 14.80561484329676
ZACUBE
1 39417U 13066B   19155.51784988  .00000156  00000-0  25853-4 0  9990
2 39417  97.5628 169.8160 0060572  80.8004 280.0054 14.81108395298945
TRITON 1
1 39427U 13066M   19154.93530725 +.00000144 +00000-0 +31084-4 0  9994
2 39427 097.6750 133.2263 0112922 212.1100 147.3194 14.67833622295989
GOMX 1
1 39430U 13066Q   19155.36000651  .00000179  00000-0  41906-4 0  9998
2 39430  97.7448 112.8560 0150203 299.8740  58.7613 14.59247044294514
HUMSAT D
1 39433U 13066T   19154.65996078 +.00000243 +00000-0 +29013-4 0  9996
2 39433 097.5548 202.7786 0030444 354.0611 006.0243 14.92178000299657
CUBEBUG 2
1 39440U 13066AA  19154.97097814  .00000132  00000-0  25194-4 0  9992
2 39440  97.6017 154.2780 0081443 132.0354 228.7826 14.75846590297807
FUNCUBE 1
1 39444U 13066AE  19155.52623416  .00000185  00000-0  28991-4 0  9997
2 39444  97.5610 171.7552 0059658  74.9306 285.8499 14.81925473297832
UWE-3
1 39446U 13066AG  19154.93266930 +.00000143 +00000-0 +25441-4 0  9998
2 39446 097.5812 161.2463 0071592 107.8242 253.0797 14.78380934296491
SPROUT
1 39770U 14029E   19155.30176882  .00000462  00000-0  57310-4 0  9990
2 39770  97.8834 258.6900 0009825 125.3970 234.8167 14.87321339272696
UNISAT 6
1 40012U 14033C   19155.55564671  .00000132  00000-0  26993-4 0  9997
2 40012  97.7595  22.7756 0059180 142.2886 218.2494 14.73971428266600
DUCHIFAT 1
1 40021U 14033M   19154.84317219  .00000191  00000-0  25390-4 0  9997
2 40021  97.9243  79.3877 0014450  97.6982 262.5877 14.90615827269332
QB50P1
1 40025U 14033R   19155.31874622  .00000225  00000-0  29971-4 0  9997
2 40025  97.9067  75.0256 0013871 104.7182 255.5574 14.88933780269189
CHUBUSAT 1
1 40300U 14070C   19155.45514097  .00000708  00000-0  33786-4 0  9991
2 40300  97.3253 229.9950 0021247 103.4168 319.4445 15.22065907253853
NUDT-PHONESAT
1 40900U 15049B   19155.45191787  .00001601  00000-0  71586-4 0  9994
2 40900  97.4371 164.9262 0011222 232.2712 233.8973 15.22724751205494
ZDPS 2A
1 40901U 15049C   19155.51262894  .00000521  00000-0  29176-4 0  9998
2 40901  97.4586 161.5413 0011765 251.3180 260.2362 15.17697388205087
ZDPS 2B
1 40902U 15049D   19155.53020774  .00001103  00000-0  58333-4 0  9994
2 40902  97.4534 159.0885 0011758 249.0572 230.1045 15.17506223205066
XW-2A
1 40903U 15049E   19155.43850094  .00001457  00000-0  36390-4 0  9991
2 40903  97.3389 198.1217 0012938 189.9469 277.9155 15.41787987208053
KAITUO 1A
1 40904U 15049F   19155.54771774  .00000577  00000-0  34067-4 0  9992
2 40904  97.4658 157.7987 0012838 256.2230 259.5466 15.15350566204857
OBJECT G
1 40905U 15049G   19155.54450743  .00000455  00000-0  28441-4 0  9997
2 40905  97.4703 155.3690 0013922 251.0524 224.0091 15.14278657204735
XW-2C
1 40906U 15049H   19155.54438269  .00000683  00000-0  39333-4 0  9992
2 40906  97.4668 157.8567 0013144 247.5383 228.8744 15.15654874204855
XW-2D
1 40907U 15049J   19155.38991947  .00000708  00000-0  40464-4 0  9997
2 40907  97.4649 157.3834 0012584 244.5091 222.1016 15.15840910204843
LILACSAT 2
1 40908U 15049K   19155.58487190  .00000236  00000-0  16659-4 0  9995
2 40908  97.4775 156.4554 0014407 250.5537 225.4966 15.13788983204671
XW-2F
1 40910U 15049M   19155.49993471  .00000650  00000-0  35994-4 0  9995
2 40910  97.4612 159.4404 0013167 236.7332 244.6903 15.17259354204866
XW-2B
1 40911U 15049N   19155.55591188  .00000545  00000-0  32019-4 0  9990
2 40911  97.4666 158.1902 0012350 245.3738 231.8726 15.15770240204764
